WMT3318 LIMJ-LATI

Flight info

Callsign WMT3318
Flight time 1h 44m
Altitude 35000
Route UNITA L50 TIDKA DCT KONER DCT BAKRO DCT ELB DCT GARGA DCT VAKSU DCT PETAK
Aircraft A21N/M-SDE3FGHIRWY/LB1

Departure

Time 2026-04-26 12:18
Airport Genoa Cristoforo Colombo Airport (LIMJ)

Arrival

Time 2026-04-26 14:02
Airport Tirana International Airport Mother Teresa (LATI)
Time Latitude Longitude Altitude Speed Heading
2026-04-26 11:44 44.41414 8.85033 23 ft 0 kts 18°
2026-04-26 12:09 44.41413 8.85033 23 ft 1 kts 18°
2026-04-26 12:09 44.41399 8.85027 23 ft 2 kts 17°
2026-04-26 12:09 44.41385 8.85021 23 ft 2 kts 18°
2026-04-26 12:10 44.41371 8.85015 23 ft 2 kts 17°
2026-04-26 12:10 44.41357 8.85006 23 ft 2 kts 46°
2026-04-26 12:10 44.41349 8.84988 23 ft 2 kts 76°
2026-04-26 12:10 44.41348 8.84970 22 ft 0 kts 103°
2026-04-26 12:11 44.41350 8.84961 22 ft 1 kts 107°
2026-04-26 12:11 44.41351 8.84959 22 ft 0 kts 107°
2026-04-26 12:13 44.41350 8.84962 22 ft 0 kts 107°
2026-04-26 12:13 44.41347 8.84973 22 ft 1 kts 105°
2026-04-26 12:13 44.41344 8.84990 23 ft 1 kts 105°
2026-04-26 12:13 44.41340 8.85011 23 ft 3 kts 105°
2026-04-26 12:14 44.41331 8.85060 23 ft 6 kts 105°
2026-04-26 12:14 44.41316 8.85140 23 ft 10 kts 104°
2026-04-26 12:14 44.41293 8.85238 23 ft 10 kts 128°
2026-04-26 12:14 44.41226 8.85281 23 ft 11 kts 186°
2026-04-26 12:15 44.41149 8.85251 23 ft 11 kts 196°
2026-04-26 12:15 44.41071 8.85212 23 ft 11 kts 217°
2026-04-26 12:15 44.41017 8.85156 23 ft 3 kts 207°
2026-04-26 12:15 44.41007 8.85144 22 ft 0 kts 255°
2026-04-26 12:16 44.41010 8.85129 22 ft 0 kts 285°
2026-04-26 12:17 44.41064 8.84849 22 ft 70 kts 283°
2026-04-26 12:18 44.41259 8.83846 21 ft 141 kts 286°
2026-04-26 12:18 44.41556 8.82334 320 ft 169 kts 284°
2026-04-26 12:18 44.41861 8.80781 1029 ft 168 kts 282°
2026-04-26 12:18 44.41759 8.79230 1723 ft 165 kts 237°
2026-04-26 12:19 44.40859 8.78346 2087 ft 169 kts 187°
2026-04-26 12:19 44.39701 8.78743 2321 ft 182 kts 144°
2026-04-26 12:19 44.38638 8.79817 2687 ft 194 kts 152°
2026-04-26 12:19 44.37357 8.80537 3164 ft 200 kts 157°
2026-04-26 12:20 44.36102 8.81354 3756 ft 200 kts 153°
2026-04-26 12:20 44.34840 8.82183 4323 ft 201 kts 162°
2026-04-26 12:20 44.33457 8.82397 4843 ft 204 kts 184°
2026-04-26 12:20 44.32055 8.82077 5360 ft 207 kts 190°
2026-04-26 12:21 44.30647 8.81697 5877 ft 210 kts 189°
2026-04-26 12:21 44.29178 8.81490 6400 ft 212 kts 182°
2026-04-26 12:21 44.27707 8.81359 6930 ft 213 kts 183°
2026-04-26 12:21 44.26241 8.81172 7446 ft 214 kts 185°
2026-04-26 12:22 44.24760 8.80950 7968 ft 215 kts 184°
2026-04-26 12:22 44.23259 8.80796 8486 ft 215 kts 181°
2026-04-26 12:22 44.21736 8.80755 8953 ft 218 kts 178°
2026-04-26 12:22 44.20205 8.80739 9440 ft 221 kts 180°
2026-04-26 12:23 44.18684 8.80657 9922 ft 222 kts 181°
2026-04-26 12:23 44.17131 8.80535 10405 ft 222 kts 182°
2026-04-26 12:23 44.15597 8.80410 10848 ft 224 kts 179°
2026-04-26 12:23 44.14041 8.80511 11264 ft 226 kts 173°
2026-04-26 12:24 44.12504 8.80995 11612 ft 230 kts 153°
2026-04-26 12:24 44.11228 8.82390 11821 ft 238 kts 132°
2026-04-26 12:24 44.10061 8.84061 12092 ft 250 kts 134°
2026-04-26 12:25 44.07322 8.87533 12521 ft 281 kts 138°
2026-04-26 12:25 44.05786 8.89307 12795 ft 295 kts 139°
2026-04-26 12:25 44.04166 8.91190 13061 ft 309 kts 139°
2026-04-26 12:25 44.02475 8.93160 13319 ft 323 kts 139°
2026-04-26 12:26 44.00739 8.95180 13559 ft 336 kts 139°
2026-04-26 12:26 43.98901 8.97315 13786 ft 350 kts 139°
2026-04-26 12:26 43.97008 8.99511 14149 ft 357 kts 139°
2026-04-26 12:26 43.95090 9.01733 14690 ft 360 kts 139°
2026-04-26 12:27 43.93137 9.03996 15228 ft 363 kts 139°
2026-04-26 12:27 43.91192 9.06248 15738 ft 366 kts 139°
2026-04-26 12:27 43.89216 9.08534 16221 ft 369 kts 139°
2026-04-26 12:27 43.87228 9.10832 16626 ft 373 kts 139°
2026-04-26 12:28 43.85221 9.13151 16929 ft 382 kts 139°
2026-04-26 12:28 43.83207 9.15475 17566 ft 378 kts 139°
2026-04-26 12:28 43.81170 9.17824 18011 ft 381 kts 140°
2026-04-26 12:28 43.79138 9.20166 18408 ft 385 kts 140°
2026-04-26 12:29 43.77049 9.22571 18835 ft 388 kts 140°
2026-04-26 12:29 43.74957 9.24976 19259 ft 391 kts 140°
2026-04-26 12:29 43.70757 9.29799 20103 ft 396 kts 140°
2026-04-26 12:30 43.68645 9.32221 20502 ft 398 kts 140°
2026-04-26 12:30 43.66497 9.34681 20902 ft 401 kts 140°
2026-04-26 12:30 43.64328 9.37166 21295 ft 403 kts 140°
2026-04-26 12:31 43.59993 9.42123 22040 ft 408 kts 140°
2026-04-26 12:31 43.57825 9.44601 22402 ft 411 kts 140°
2026-04-26 12:31 43.55603 9.47135 22761 ft 413 kts 140°
2026-04-26 12:31 43.53376 9.49672 23117 ft 415 kts 140°
2026-04-26 12:32 43.51173 9.52181 23467 ft 417 kts 140°
2026-04-26 12:32 43.48921 9.54739 23821 ft 419 kts 140°
2026-04-26 12:32 43.44421 9.59843 24487 ft 423 kts 140°
2026-04-26 12:33 43.42136 9.62431 24826 ft 424 kts 140°
2026-04-26 12:33 43.39874 9.64992 25148 ft 426 kts 140°
2026-04-26 12:33 43.37565 9.67604 25468 ft 428 kts 141°
2026-04-26 12:33 43.35199 9.70278 25778 ft 429 kts 141°
2026-04-26 12:34 43.32922 9.72850 26071 ft 431 kts 141°
2026-04-26 12:34 43.30570 9.75503 26364 ft 433 kts 141°
2026-04-26 12:34 43.28247 9.78120 26659 ft 434 kts 141°
2026-04-26 12:34 43.25928 9.80729 26944 ft 435 kts 141°
2026-04-26 12:35 43.23582 9.83367 27221 ft 437 kts 141°
2026-04-26 12:35 43.21219 9.86021 27496 ft 438 kts 141°
2026-04-26 12:35 43.18863 9.88664 27767 ft 439 kts 141°
2026-04-26 12:35 43.16489 9.91324 28028 ft 441 kts 141°
2026-04-26 12:36 43.14109 9.93988 28281 ft 442 kts 141°
2026-04-26 12:36 43.11744 9.96635 28528 ft 444 kts 141°
2026-04-26 12:36 43.09340 9.99323 28773 ft 446 kts 141°
2026-04-26 12:36 43.06949 10.01994 29039 ft 446 kts 141°
2026-04-26 12:37 43.04529 10.04695 29293 ft 448 kts 141°
2026-04-26 12:37 43.02136 10.07362 29533 ft 449 kts 141°
2026-04-26 12:37 42.99706 10.10068 29775 ft 450 kts 141°
2026-04-26 12:37 42.97267 10.12782 30014 ft 451 kts 142°
2026-04-26 12:38 42.94858 10.15460 30290 ft 451 kts 142°
2026-04-26 12:38 42.92427 10.18159 30622 ft 450 kts 142°
2026-04-26 12:38 42.90007 10.20844 30930 ft 449 kts 142°
2026-04-26 12:38 42.87565 10.23550 31206 ft 449 kts 142°
2026-04-26 12:39 42.85125 10.26252 31467 ft 449 kts 142°
2026-04-26 12:39 42.82703 10.28929 31718 ft 449 kts 142°
2026-04-26 12:39 42.80267 10.31627 31967 ft 450 kts 140°
2026-04-26 12:39 42.78034 10.34557 32210 ft 451 kts 133°
2026-04-26 12:40 42.76077 10.37949 32466 ft 452 kts 124°
2026-04-26 12:40 42.74513 10.41608 32714 ft 452 kts 116°
2026-04-26 12:40 42.73323 10.45549 32957 ft 452 kts 108°
2026-04-26 12:40 42.72536 10.49709 33191 ft 452 kts 100°
2026-04-26 12:41 42.72152 10.53952 33430 ft 452 kts 94°
2026-04-26 12:41 42.71909 10.58216 33641 ft 453 kts 93°
2026-04-26 12:41 42.71687 10.62482 33825 ft 454 kts 93°
2026-04-26 12:41 42.71463 10.66726 33999 ft 455 kts 94°
2026-04-26 12:42 42.71227 10.71046 34189 ft 456 kts 94°
2026-04-26 12:42 42.70983 10.75362 34381 ft 456 kts 94°
2026-04-26 12:42 42.70734 10.79677 34566 ft 457 kts 94°
2026-04-26 12:42 42.70483 10.83940 34728 ft 458 kts 94°
2026-04-26 12:43 42.70224 10.88307 34889 ft 459 kts 94°
2026-04-26 12:43 42.69967 10.92595 35043 ft 460 kts 94°
2026-04-26 12:43 42.69702 10.96976 35106 ft 461 kts 94°
2026-04-26 12:44 42.69172 11.05654 35116 ft 461 kts 94°
2026-04-26 12:44 42.68633 11.14344 35117 ft 461 kts 94°
2026-04-26 12:45 42.68082 11.23137 35116 ft 461 kts 94°
2026-04-26 12:45 42.67545 11.31592 35117 ft 461 kts 94°
2026-04-26 12:46 42.66990 11.40243 35123 ft 460 kts 94°
2026-04-26 12:46 42.66424 11.48947 35128 ft 460 kts 94°
2026-04-26 12:47 42.65856 11.57585 35135 ft 461 kts 94°
2026-04-26 12:47 42.65279 11.66273 35133 ft 461 kts 95°
2026-04-26 12:48 42.64694 11.74967 35133 ft 460 kts 95°
2026-04-26 12:48 42.64108 11.83594 35135 ft 461 kts 95°
2026-04-26 12:49 42.63511 11.92272 35133 ft 461 kts 95°
2026-04-26 12:49 42.62909 12.00909 35136 ft 461 kts 95°
2026-04-26 12:50 42.62299 12.09575 35136 ft 460 kts 94°
2026-04-26 12:50 42.61682 12.18269 35135 ft 460 kts 95°
2026-04-26 12:51 42.61062 12.26899 35126 ft 460 kts 95°
2026-04-26 12:51 42.60430 12.35600 35125 ft 460 kts 95°
2026-04-26 12:52 42.59797 12.44218 35129 ft 460 kts 95°
2026-04-26 12:52 42.59155 12.52868 35128 ft 460 kts 94°
2026-04-26 12:53 42.58510 12.61480 35137 ft 460 kts 94°
2026-04-26 12:53 42.57856 12.70115 35140 ft 460 kts 95°
2026-04-26 12:54 42.57196 12.78748 35148 ft 460 kts 95°
2026-04-26 12:54 42.56528 12.87410 35164 ft 460 kts 95°
2026-04-26 12:55 42.55858 12.95995 35186 ft 460 kts 95°
2026-04-26 12:55 42.55179 13.04663 35191 ft 460 kts 95°
2026-04-26 12:56 42.54360 13.13244 35186 ft 460 kts 99°
2026-04-26 12:56 42.53583 13.21900 35178 ft 460 kts 94°
2026-04-26 12:57 42.53017 13.30527 35170 ft 460 kts 94°
2026-04-26 12:57 42.52374 13.39138 35175 ft 460 kts 95°
2026-04-26 12:58 42.51325 13.52081 35179 ft 461 kts 95°
2026-04-26 12:58 42.50602 13.60737 35171 ft 461 kts 95°
2026-04-26 12:59 42.49870 13.69398 35166 ft 462 kts 96°
2026-04-26 12:59 42.49132 13.78051 35151 ft 462 kts 96°
2026-04-26 13:00 42.48386 13.86720 35138 ft 462 kts 96°
2026-04-26 13:00 42.47635 13.95349 35125 ft 462 kts 95°
2026-04-26 13:01 42.46881 14.03951 35114 ft 462 kts 95°
2026-04-26 13:01 42.46118 14.12589 35108 ft 462 kts 95°
2026-04-26 13:02 42.45347 14.21237 35105 ft 463 kts 95°
2026-04-26 13:02 42.44572 14.29852 35103 ft 463 kts 96°
2026-04-26 13:03 42.43784 14.38542 35103 ft 463 kts 96°
2026-04-26 13:03 42.42991 14.47190 35104 ft 463 kts 96°
2026-04-26 13:04 42.42194 14.55817 35097 ft 462 kts 96°
2026-04-26 13:04 42.41388 14.64476 35099 ft 463 kts 95°
2026-04-26 13:05 42.40577 14.73133 35095 ft 463 kts 96°
2026-04-26 13:05 42.39757 14.81795 35099 ft 463 kts 96°
2026-04-26 13:06 42.38932 14.90441 35098 ft 463 kts 96°
2026-04-26 13:06 42.38103 14.99059 35095 ft 464 kts 96°
2026-04-26 13:07 42.37260 15.07752 35098 ft 464 kts 96°
2026-04-26 13:07 42.36419 15.16363 35098 ft 464 kts 96°
2026-04-26 13:08 42.35571 15.24968 35096 ft 463 kts 96°
2026-04-26 13:08 42.34711 15.33629 35098 ft 463 kts 96°
2026-04-26 13:09 42.33854 15.42192 35094 ft 463 kts 96°
2026-04-26 13:09 42.32983 15.50833 35095 ft 464 kts 96°
2026-04-26 13:10 42.32108 15.59437 35094 ft 464 kts 96°
2026-04-26 13:10 42.31222 15.68091 35090 ft 464 kts 97°
2026-04-26 13:11 42.30328 15.76754 35091 ft 464 kts 97°
2026-04-26 13:11 42.29437 15.85339 35091 ft 464 kts 97°
2026-04-26 13:12 42.28537 15.93928 35093 ft 464 kts 97°
2026-04-26 13:12 42.27622 16.02604 35090 ft 464 kts 97°
2026-04-26 13:13 42.26711 16.11171 35089 ft 465 kts 97°
2026-04-26 13:13 42.25867 16.19809 35089 ft 465 kts 96°
2026-04-26 13:14 42.25058 16.28460 35087 ft 465 kts 96°
2026-04-26 13:14 42.24238 16.37092 35086 ft 465 kts 96°
2026-04-26 13:15 42.23406 16.45731 35086 ft 465 kts 96°
2026-04-26 13:15 42.22568 16.54342 35085 ft 465 kts 96°
2026-04-26 13:16 42.21720 16.62985 35084 ft 465 kts 96°
2026-04-26 13:16 42.20862 16.71678 35083 ft 465 kts 97°
2026-04-26 13:17 42.19559 16.84700 35080 ft 465 kts 97°
2026-04-26 13:18 42.18246 16.97693 35081 ft 465 kts 97°
2026-04-26 13:19 42.16919 17.10680 35079 ft 465 kts 97°
2026-04-26 13:19 42.16030 17.19299 35077 ft 466 kts 97°
2026-04-26 13:20 42.15133 17.27931 35073 ft 466 kts 97°
2026-04-26 13:20 42.14224 17.36616 35074 ft 467 kts 97°
2026-04-26 13:21 42.13309 17.45285 35071 ft 467 kts 97°
2026-04-26 13:21 42.12390 17.53920 35073 ft 467 kts 97°
2026-04-26 13:22 42.11468 17.62520 35071 ft 467 kts 97°
2026-04-26 13:22 42.10522 17.71295 35067 ft 467 kts 98°
2026-04-26 13:23 42.09585 17.79919 35064 ft 468 kts 98°
2026-04-26 13:23 42.08636 17.88592 35062 ft 467 kts 98°
2026-04-26 13:24 42.07686 17.97221 35063 ft 467 kts 98°
2026-04-26 13:24 42.07209 18.01512 34954 ft 466 kts 98°
2026-04-26 13:24 42.06727 18.05841 34294 ft 469 kts 98°
2026-04-26 13:24 42.06237 18.10229 33290 ft 476 kts 98°
2026-04-26 13:25 42.05743 18.14641 32252 ft 483 kts 98°
2026-04-26 13:25 42.05235 18.19165 31287 ft 487 kts 98°
2026-04-26 13:25 42.04727 18.23669 30429 ft 488 kts 98°
2026-04-26 13:25 42.04214 18.28203 29570 ft 489 kts 98°
2026-04-26 13:26 42.03705 18.32688 28828 ft 487 kts 98°
2026-04-26 13:26 42.03194 18.37164 28219 ft 482 kts 98°
2026-04-26 13:26 42.02677 18.41673 27669 ft 477 kts 98°
2026-04-26 13:26 42.02176 18.46027 27160 ft 471 kts 98°
2026-04-26 13:27 42.01591 18.50375 26649 ft 466 kts 102°
2026-04-26 13:27 42.00761 18.54543 26145 ft 461 kts 107°
2026-04-26 13:27 41.99683 18.58577 25632 ft 457 kts 111°
2026-04-26 13:27 41.98500 18.62542 25132 ft 453 kts 112°
2026-04-26 13:28 41.97311 18.66450 24635 ft 449 kts 113°
2026-04-26 13:28 41.96140 18.70293 24147 ft 445 kts 113°
2026-04-26 13:28 41.94966 18.74158 23660 ft 441 kts 113°
2026-04-26 13:28 41.93821 18.77934 23185 ft 437 kts 113°
2026-04-26 13:29 41.92670 18.81731 22708 ft 433 kts 113°
2026-04-26 13:29 41.91930 18.84172 22406 ft 430 kts 113°
2026-04-26 13:29 41.90424 18.89136 21785 ft 425 kts 112°
2026-04-26 13:29 41.89317 18.92782 21322 ft 422 kts 112°
2026-04-26 13:30 41.88201 18.96455 20854 ft 418 kts 112°
2026-04-26 13:30 41.87103 19.00067 20388 ft 415 kts 112°
2026-04-26 13:30 41.86023 19.03615 19920 ft 411 kts 112°
2026-04-26 13:30 41.84942 19.07162 19472 ft 408 kts 112°
2026-04-26 13:31 41.83871 19.10669 19004 ft 405 kts 112°
2026-04-26 13:31 41.82806 19.14153 18520 ft 401 kts 112°
2026-04-26 13:31 41.81747 19.17615 18067 ft 397 kts 112°
2026-04-26 13:31 41.80701 19.21026 17627 ft 394 kts 112°
2026-04-26 13:32 41.79666 19.24396 17157 ft 390 kts 112°
2026-04-26 13:32 41.78637 19.27738 16727 ft 387 kts 112°
2026-04-26 13:32 41.77433 19.30969 16243 ft 384 kts 120°
2026-04-26 13:32 41.75958 19.33897 15823 ft 381 kts 127°
2026-04-26 13:33 41.74285 19.36640 15374 ft 378 kts 129°
2026-04-26 13:33 41.72575 19.39340 14929 ft 375 kts 130°
2026-04-26 13:33 41.70899 19.41979 14468 ft 372 kts 129°
2026-04-26 13:33 41.69228 19.44621 14001 ft 368 kts 129°
2026-04-26 13:34 41.67587 19.47227 13584 ft 365 kts 129°
2026-04-26 13:34 41.65950 19.49830 13162 ft 362 kts 129°
2026-04-26 13:34 41.64215 19.52211 12708 ft 361 kts 143°
2026-04-26 13:34 41.62759 19.53307 12383 ft 360 kts 157°
2026-04-26 13:35 41.59523 19.54139 11782 ft 357 kts 174°
2026-04-26 13:35 41.57037 19.54440 11321 ft 355 kts 174°
2026-04-26 13:35 41.54575 19.54736 10867 ft 353 kts 174°
2026-04-26 13:35 41.52110 19.55045 10510 ft 347 kts 173°
2026-04-26 13:36 41.49743 19.55353 10372 ft 335 kts 173°
2026-04-26 13:36 41.47469 19.55654 10216 ft 323 kts 173°
2026-04-26 13:36 41.45262 19.55951 10083 ft 311 kts 173°
2026-04-26 13:36 41.43126 19.56239 9923 ft 302 kts 173°
2026-04-26 13:37 41.41047 19.56521 9546 ft 300 kts 172°
2026-04-26 13:37 41.38954 19.56806 9170 ft 299 kts 172°
2026-04-26 13:37 41.36870 19.57089 8817 ft 297 kts 172°
2026-04-26 13:37 41.34873 19.57361 8465 ft 295 kts 172°
2026-04-26 13:38 41.32811 19.57640 8125 ft 292 kts 172°
2026-04-26 13:38 41.30777 19.57915 7781 ft 290 kts 172°
2026-04-26 13:38 41.28777 19.58187 7443 ft 287 kts 172°
2026-04-26 13:38 41.26779 19.58456 7115 ft 285 kts 172°
2026-04-26 13:39 41.24810 19.58721 6782 ft 283 kts 172°
2026-04-26 13:39 41.22854 19.58987 6461 ft 281 kts 172°
2026-04-26 13:39 41.20917 19.59251 6115 ft 280 kts 171°
2026-04-26 13:39 41.19060 19.59990 5727 ft 275 kts 143°
2026-04-26 13:40 41.17826 19.61850 5392 ft 266 kts 112°
2026-04-26 13:40 41.17450 19.64203 5023 ft 259 kts 85°
2026-04-26 13:40 41.17657 19.66604 4703 ft 256 kts 81°
2026-04-26 13:40 41.17878 19.68958 4385 ft 254 kts 82°
2026-04-26 13:41 41.18079 19.71273 4077 ft 251 kts 81°
2026-04-26 13:41 41.18607 19.73389 3975 ft 237 kts 51°
2026-04-26 13:41 41.19913 19.74647 3995 ft 235 kts 17°
2026-04-26 13:41 41.21505 19.74840 4001 ft 223 kts 356°
2026-04-26 13:42 41.23052 19.74580 3942 ft 220 kts 352°
2026-04-26 13:42 41.24160 19.74364 3758 ft 220 kts 353°
2026-04-26 13:42 41.25041 19.74211 3567 ft 220 kts 354°
2026-04-26 13:42 41.26527 19.73991 3221 ft 220 kts 354°
2026-04-26 13:43 41.28014 19.73798 2933 ft 210 kts 354°
2026-04-26 13:43 41.29483 19.73608 2762 ft 207 kts 354°
2026-04-26 13:43 41.30876 19.73440 2371 ft 200 kts 354°
2026-04-26 13:43 41.32274 19.73269 1823 ft 201 kts 354°
2026-04-26 13:44 41.33644 19.73095 1559 ft 195 kts 353°
2026-04-26 13:44 41.34977 19.72920 1718 ft 192 kts 353°
2026-04-26 13:44 41.36260 19.72728 1543 ft 179 kts 352°
2026-04-26 13:44 41.37479 19.72527 1140 ft 175 kts 352°
2026-04-26 13:45 41.38672 19.72362 799 ft 169 kts 353°
2026-04-26 13:45 41.39854 19.72260 530 ft 178 kts 355°
2026-04-26 13:45 41.41089 19.72116 938 ft 176 kts 353°
2026-04-26 13:45 41.42293 19.71954 1467 ft 172 kts 353°
2026-04-26 13:46 41.43469 19.71792 1947 ft 168 kts 354°
2026-04-26 13:46 41.44642 19.71632 2231 ft 172 kts 354°
2026-04-26 13:46 41.45835 19.71474 2603 ft 173 kts 354°
2026-04-26 13:46 41.47052 19.71312 2932 ft 178 kts 355°
2026-04-26 13:47 41.48360 19.71120 3000 ft 201 kts 350°
2026-04-26 13:47 41.49686 19.70363 3003 ft 217 kts 325°
2026-04-26 13:47 41.50729 19.69175 3019 ft 222 kts 319°
2026-04-26 13:47 41.51894 19.67745 3217 ft 231 kts 319°
2026-04-26 13:48 41.53109 19.66248 3422 ft 235 kts 319°
2026-04-26 13:48 41.54312 19.64779 3646 ft 236 kts 319°
2026-04-26 13:48 41.55524 19.63308 3884 ft 237 kts 319°
2026-04-26 13:48 41.56759 19.61814 4126 ft 239 kts 320°
2026-04-26 13:49 41.57991 19.60328 4371 ft 240 kts 320°
2026-04-26 13:49 41.59233 19.58830 4619 ft 241 kts 320°
2026-04-26 13:49 41.60356 19.57129 4847 ft 245 kts 297°
2026-04-26 13:49 41.60620 19.54878 4976 ft 252 kts 261°
2026-04-26 13:50 41.59847 19.52812 4978 ft 254 kts 226°
2026-04-26 13:50 41.58381 19.51532 4974 ft 254 kts 197°
2026-04-26 13:50 41.56631 19.51338 4979 ft 252 kts 169°
2026-04-26 13:50 41.54907 19.51779 4986 ft 252 kts 168°
2026-04-26 13:51 41.53189 19.52211 4989 ft 252 kts 168°
2026-04-26 13:51 41.51452 19.52618 4989 ft 253 kts 169°
2026-04-26 13:51 41.49724 19.53002 4985 ft 253 kts 169°
2026-04-26 13:51 41.47980 19.53378 4984 ft 253 kts 169°
2026-04-26 13:52 41.46226 19.53749 4976 ft 253 kts 170°
2026-04-26 13:52 41.44479 19.54115 4979 ft 253 kts 170°
2026-04-26 13:52 41.42753 19.54476 4980 ft 252 kts 170°
2026-04-26 13:52 41.41004 19.54840 4989 ft 253 kts 170°
2026-04-26 13:53 41.39242 19.55206 4989 ft 253 kts 170°
2026-04-26 13:53 41.37502 19.55566 4986 ft 253 kts 170°
2026-04-26 13:53 41.35757 19.55927 4985 ft 253 kts 170°
2026-04-26 13:53 41.34031 19.56284 4985 ft 252 kts 170°
2026-04-26 13:54 41.32290 19.56644 4987 ft 252 kts 170°
2026-04-26 13:54 41.30554 19.57003 4989 ft 252 kts 170°
2026-04-26 13:54 41.28800 19.57365 4906 ft 252 kts 170°
2026-04-26 13:55 41.25348 19.58077 4669 ft 251 kts 170°
2026-04-26 13:55 41.24195 19.58315 4554 ft 251 kts 170°
2026-04-26 13:55 41.20149 19.59180 4273 ft 250 kts 165°
2026-04-26 13:56 41.18643 19.60222 4139 ft 247 kts 135°
2026-04-26 13:56 41.17695 19.62077 4021 ft 243 kts 107°
2026-04-26 13:56 41.17474 19.64302 3995 ft 240 kts 84°
2026-04-26 13:56 41.17658 19.66498 3996 ft 239 kts 82°
2026-04-26 13:57 41.17859 19.68683 4001 ft 239 kts 82°
2026-04-26 13:57 41.18047 19.70868 3999 ft 239 kts 82°
2026-04-26 13:57 41.18440 19.73014 3974 ft 237 kts 58°
2026-04-26 13:57 41.19608 19.74453 3986 ft 235 kts 24°
2026-04-26 13:58 41.21184 19.74834 3989 ft 222 kts 358°
2026-04-26 13:58 41.22707 19.74635 3966 ft 219 kts 353°
2026-04-26 13:58 41.24222 19.74346 3743 ft 219 kts 353°
2026-04-26 13:58 41.25747 19.74095 3448 ft 217 kts 354°
2026-04-26 13:59 41.27227 19.73891 3088 ft 211 kts 354°
2026-04-26 13:59 41.28651 19.73712 2721 ft 199 kts 354°
2026-04-26 13:59 41.29984 19.73545 2459 ft 184 kts 354°
2026-04-26 14:00 41.33437 19.73110 1657 ft 155 kts 353°
2026-04-26 14:00 41.34522 19.72969 1450 ft 154 kts 352°
2026-04-26 14:00 41.35227 19.72867 1292 ft 155 kts 352°
2026-04-26 14:01 41.36646 19.72675 923 ft 153 kts 353°
2026-04-26 14:01 41.37706 19.72543 726 ft 153 kts 353°
2026-04-26 14:01 41.38779 19.72409 502 ft 153 kts 352°
2026-04-26 14:01 41.39822 19.72269 248 ft 149 kts 352°
2026-04-26 14:02 41.40832 19.72128 134 ft 127 kts 356°
2026-04-26 14:02 41.41458 19.72052 129 ft 72 kts 356°
2026-04-26 14:02 41.41882 19.71993 124 ft 40 kts 358°
2026-04-26 14:02 41.42148 19.71967 122 ft 36 kts 355°
2026-04-26 14:03 41.42288 19.71909 121 ft 13 kts 266°
2026-04-26 14:03 41.42277 19.71787 120 ft 13 kts 263°
2026-04-26 14:03 41.42266 19.71663 120 ft 13 kts 264°
2026-04-26 14:03 41.42263 19.71619 120 ft 0 kts 264°
2026-04-26 14:05 41.42263 19.71618 120 ft 0 kts 264°
2026-04-26 14:05 41.42262 19.71600 120 ft 10 kts 269°
2026-04-26 14:05 41.42265 19.71517 120 ft 4 kts 266°
2026-04-26 14:05 41.42262 19.71483 119 ft 0 kts 264°
2026-04-26 14:06 41.42262 19.71482 119 ft 0 kts 264°